Location: Helion Bumpstead
(52.0500°N, 0.4000°E)
Time: 11:41:27
(UTC+00:00)

Cosmos 2034 Rocket - Pass Details

Date: 15 November 2025
Orbit: 958 x 998 km, 82.9° (Epoch: 10 December)

Event Time Altitude Azimuth Distance (km) Brightness Sun altitude
Rises 06:31:43 0° 346° (NNW) 3,713 6.7 -7.4°
Reaches altitude 10° 06:34:18 10° 342° (NNW) 2,765 6.0 -7.0°
Maximum altitude 06:40:23 51° 269° (W) 1,243 4.3 -6.1°
Drops below altitude 10° 06:46:28 10° 196° (SSW) 2,762 6.5 -5.3°
Sets 06:49:03 0° 191° (S) 3,708 7.2 -4.9°
